DW8501 Madrid ES current weather conditions

sailwx.info

Wind from 205 at 1 knots gusting 6

Air temperature 26.1° C
Dewpoint 9.0° C

Last reported at 2014-Jul-26 08:50 UTC.
Time now 2014-Jul-26 09:09 UTC

Location: N 40°27' W 003°35'.
View on Google Maps.

See reports from other nearby stations

  
Tides and Currents Weather Stations Pressure Air Temp Water Temp Dewpoint Dewpoint Depression Visibility Wind Speed Wind Dir Waves Ship Positions
date/time (UTC)wind fromknots sea level pressurealtimeterstation pressurevisibilityair tempwater tempwave heightnotes
2014-Jul-26 08:50 205 1 gusting 6 26.1
2014-Jul-26 08:45 220 3 gusting 10 26.1
2014-Jul-26 08:40 245 4 gusting 10 25.6
2014-Jul-26 08:35 204 2 gusting 6 26.1
2014-Jul-26 08:30 217 2 gusting 6 25.6
2014-Jul-26 08:25 219 5 gusting 6 25.6
2014-Jul-26 08:20 198 2 gusting 6 26.1
2014-Jul-26 08:15 218 3 gusting 5 26.7
2014-Jul-26 08:10 241 1 gusting 4 27.2
2014-Jul-26 08:05 27.8
2014-Jul-26 08:00 27.8
2014-Jul-26 07:55 242 0 gusting 3 27.2
2014-Jul-26 07:50 26.1
2014-Jul-26 07:45 116 1 gusting 3 25.6
2014-Jul-26 07:40 110 1 gusting 3 25.6
2014-Jul-26 07:35 070 0 gusting 4 25.0
2014-Jul-26 07:30 078 0 gusting 4 24.4
2014-Jul-26 07:25 105 3 gusting 4 24.4
2014-Jul-26 07:20 134 1 gusting 5 24.4
2014-Jul-26 07:15 116 2 gusting 5 23.3
2014-Jul-26 07:10 107 3 gusting 5 22.8
2014-Jul-26 07:05 101 3 gusting 5 22.8
2014-Jul-26 07:00 103 2 gusting 5 22.8
2014-Jul-26 06:55 090 1 gusting 5 22.2
2014-Jul-26 06:50 083 1 gusting 5 21.7
2014-Jul-26 06:45 091 3 gusting 5 21.7
2014-Jul-26 06:40 089 3 gusting 4 21.7
2014-Jul-26 06:35 081 3 gusting 6 21.7
2014-Jul-26 06:30 086 3 gusting 6 21.1
2014-Jul-26 06:25 091 4 gusting 6 21.1
2014-Jul-26 06:20 084 3 gusting 6 21.1
2014-Jul-26 06:15 075 3 gusting 6 21.1
2014-Jul-26 06:10 072 4 gusting 6 21.1
2014-Jul-26 06:05 078 3 gusting 6 21.1
2014-Jul-26 06:00 089 3 gusting 6 21.1
2014-Jul-26 05:55 091 3 gusting 6 21.1
2014-Jul-26 05:50 092 2 gusting 6 20.6
2014-Jul-26 05:45 093 2 gusting 6 20.6
2014-Jul-26 05:40 095 3 gusting 6 20.6
2014-Jul-26 05:35 094 3 gusting 6 20.6
2014-Jul-26 05:30 092 3 gusting 6 20.6
2014-Jul-26 05:25 090 3 gusting 6 20.6
2014-Jul-26 05:20 092 4 gusting 7 20.6
2014-Jul-26 05:15 088 3 gusting 7 20.6
2014-Jul-26 05:10 082 5 gusting 6 20.6
2014-Jul-26 05:05 083 3 gusting 8 20.6
2014-Jul-26 05:00 074 5 gusting 8 20.6
2014-Jul-26 04:55 070 6 gusting 7 20.6
2014-Jul-26 04:50 081 3 gusting 5 20.6
2014-Jul-26 04:45 082 3 gusting 5 20.6
2014-Jul-26 04:40 086 3 gusting 5 20.6
2014-Jul-26 04:35 090 3 gusting 4 20.6
2014-Jul-26 04:30 097 2 gusting 4 20.6
2014-Jul-26 04:25 102 2 gusting 4 20.6
2014-Jul-26 04:20 089 3 gusting 5 20.6
2014-Jul-26 04:15 095 1 gusting 6 21.1
2014-Jul-26 04:10 110 3 gusting 6 21.1
2014-Jul-26 04:05 101 3 gusting 5 21.1
2014-Jul-26 04:00 092 3 gusting 6 21.1
2014-Jul-26 03:55 090 3 gusting 6 21.1
2014-Jul-26 03:50 087 3 gusting 6 21.1
2014-Jul-26 03:45 087 3 gusting 6 21.7
2014-Jul-26 03:40 082 3 gusting 8 21.7
2014-Jul-26 03:35 080 3 gusting 8 21.7
2014-Jul-26 03:30 069 4 gusting 7 21.7
2014-Jul-26 03:25 068 3 gusting 7 21.7
2014-Jul-26 03:20 076 3 gusting 9 21.7
2014-Jul-26 03:15 073 4 gusting 9 22.2
2014-Jul-26 03:10 072 6 gusting 9 22.2
2014-Jul-26 03:05 083 5 gusting 6 22.2
2014-Jul-26 03:00 085 3 gusting 5 22.2
2014-Jul-26 02:55 084 3 gusting 5 22.2
2014-Jul-26 02:50 095 4 gusting 6 22.2
2014-Jul-26 02:45 085 3 gusting 6 22.8
2014-Jul-26 02:40 081 3 gusting 6 22.8
2014-Jul-26 02:35 084 6 gusting 6 22.8
2014-Jul-26 02:30 063 1 gusting 6 22.8
2014-Jul-26 02:25 058 1 gusting 6 22.8
2014-Jul-26 02:20 054 4 gusting 8 22.8
2014-Jul-26 02:15 060 5 gusting 8 22.8
2014-Jul-26 02:10 068 5 gusting 7 22.8
2014-Jul-26 02:05 058 6 gusting 7 23.3
2014-Jul-26 02:00 047 6 gusting 8 23.3
2014-Jul-26 01:55 047 6 gusting 8 23.3
2014-Jul-26 01:50 047 5 gusting 6 23.3
2014-Jul-26 01:45 050 5 gusting 6 23.3
2014-Jul-26 01:40 051 3 gusting 6 23.3
2014-Jul-26 01:35 056 3 gusting 7 23.3
2014-Jul-26 01:30 057 6 gusting 7 23.3
2014-Jul-26 01:25 050 5 gusting 6 23.3
2014-Jul-26 01:20 054 4 gusting 6 23.3
2014-Jul-26 01:15 047 4 gusting 6 23.3
2014-Jul-26 01:10 004 2 gusting 3 22.8
2014-Jul-26 01:05 036 1 gusting 4 23.3
2014-Jul-26 01:00 23.3
2014-Jul-26 00:55 013 2 gusting 4 23.3
2014-Jul-26 00:50 007 1 gusting 4 23.3
2014-Jul-26 00:45 348 1 gusting 4 23.9
2014-Jul-26 00:40 334 1 gusting 4 23.9
2014-Jul-26 00:35 332 3 gusting 4 23.9
2014-Jul-26 00:30 039 1 gusting 1 23.9
2014-Jul-26 00:25 23.9
2014-Jul-26 00:20 099 1 gusting 3 23.9
2014-Jul-26 00:15 073 0 gusting 13 24.4
2014-Jul-26 00:10 051 2 gusting 13 24.4
2014-Jul-26 00:05 050 8 gusting 13 24.4
2014-Jul-26 00:00 071 8 gusting 13 24.4
2014-Jul-25 23:55 220 0 gusting 3 24.4
2014-Jul-25 23:50 223 1 gusting 4 24.4
2014-Jul-25 23:45 220 1 gusting 4 24.4
2014-Jul-25 23:40 245 3 gusting 4 24.4
2014-Jul-25 23:35 238 2 gusting 4 23.9
2014-Jul-25 23:30 224 2 gusting 3 23.9
2014-Jul-25 23:25 221 2 gusting 3 24.4
2014-Jul-25 23:20 205 1 gusting 3 24.4
2014-Jul-25 23:15 204 1 gusting 4 25.0
2014-Jul-25 23:10 218 0 gusting 4 25.0
2014-Jul-25 23:05 231 1 gusting 3 25.0
2014-Jul-25 23:00 245 1 gusting 3 25.6
2014-Jul-25 22:55 228 0 gusting 3 26.1
2014-Jul-25 22:50 226 1 gusting 3 26.7
2014-Jul-25 22:45 229 2 gusting 4 27.2
2014-Jul-25 22:40 227 3 gusting 4 27.2
2014-Jul-25 22:35 262 2 gusting 5 27.8
2014-Jul-25 22:30 275 2 gusting 5 27.8
2014-Jul-25 22:25 269 2 gusting 6 27.8
2014-Jul-25 22:20 276 3 gusting 6 27.8
2014-Jul-25 22:15 261 3 gusting 5 28.3
2014-Jul-25 22:10 234 3 gusting 5 28.3
2014-Jul-25 22:05 251 4 gusting 6 28.3
2014-Jul-25 22:00 270 4 gusting 6 28.3
2014-Jul-25 21:55 272 3 gusting 6 28.3
2014-Jul-25 21:50 285 4 gusting 6 28.3
2014-Jul-25 21:45 273 3 gusting 6 28.3
2014-Jul-25 21:40 265 2 gusting 6 28.9
2014-Jul-25 21:35 277 4 gusting 6 28.9
2014-Jul-25 21:30 282 4 gusting 6 28.9
2014-Jul-25 21:25 274 3 gusting 6 28.9
2014-Jul-25 21:20 287 3 gusting 7 28.9
2014-Jul-25 21:15 289 4 gusting 7 28.9
2014-Jul-25 21:10 287 4 gusting 6 28.9
2014-Jul-25 21:05 281 3 gusting 6 29.4
2014-Jul-25 21:00 268 4 gusting 6 29.4
2014-Jul-25 20:55 269 4 gusting 5 29.4
2014-Jul-25 20:50 277 2 gusting 3 29.4
2014-Jul-25 20:45 282 2 gusting 3 29.4
2014-Jul-25 20:40 282 2 gusting 3 29.4
2014-Jul-25 20:35 283 1 gusting 4 29.4
2014-Jul-25 20:30 285 1 gusting 4 30.0
2014-Jul-25 20:25 300 3 gusting 9 30.0
2014-Jul-25 20:20 299 2 gusting 9 30.0
2014-Jul-25 20:15 286 6 gusting 9 30.0
2014-Jul-25 20:10 272 6 gusting 9 30.0
2014-Jul-25 20:05 265 6 gusting 11 30.6
2014-Jul-25 20:00 277 6 gusting 11 30.6
2014-Jul-25 19:55 286 6 gusting 10 30.6
2014-Jul-25 19:50 279 6 gusting 12 30.6
2014-Jul-25 19:45 273 6 gusting 12 30.6
2014-Jul-25 19:40 259 9 gusting 12 30.6
2014-Jul-25 19:35 260 6 gusting 8 30.6
2014-Jul-25 19:30 264 6 gusting 11 30.6
2014-Jul-25 19:25 273 6 gusting 11 31.1
2014-Jul-25 19:20 277 9 gusting 11 31.1
2014-Jul-25 19:15 274 3 gusting 11 31.1
2014-Jul-25 19:10 288 9 gusting 11 31.7
2014-Jul-25 19:05 273 3 gusting 12 31.7
2014-Jul-25 19:00 280 7 gusting 12 31.7
2014-Jul-25 18:55 281 6 gusting 10 31.7
2014-Jul-25 18:50 248 6 gusting 10 32.2
2014-Jul-25 18:40 278 4 gusting 13 32.2
2014-Jul-25 18:35 268 6 gusting 13 32.2
2014-Jul-25 18:30 266 9 gusting 13 32.2
2014-Jul-25 18:25 268 6 gusting 13 32.2
2014-Jul-25 18:20 270 6 gusting 13 32.2
2014-Jul-25 18:15 269 8 gusting 13 32.2
2014-Jul-25 18:10 266 8 gusting 11 32.2
2014-Jul-25 18:05 273 6 gusting 13 32.2
2014-Jul-25 18:00 263 6 gusting 13 32.2
2014-Jul-25 17:55 232 10 gusting 13 32.8
2014-Jul-25 17:50 228 5 gusting 14 32.8
2014-Jul-25 17:45 269 9 gusting 14 32.8
2014-Jul-25 17:40 293 5 gusting 13 32.8
2014-Jul-25 17:35 264 6 gusting 16 32.8
2014-Jul-25 17:30 245 8 gusting 16 32.8
2014-Jul-25 17:25 242 10 gusting 12 33.3
2014-Jul-25 17:20 237 6 gusting 15 32.8
2014-Jul-25 17:15 248 6 gusting 15 32.8
2014-Jul-25 17:10 278 6 gusting 14 33.3
2014-Jul-25 17:05 292 10 gusting 14 33.3
2014-Jul-25 17:00 278 3 gusting 13 33.3
2014-Jul-25 16:55 263 6 gusting 13 33.3
2014-Jul-25 16:50 288 7 gusting 15 33.3
2014-Jul-25 16:45 289 9 gusting 15 32.8
2014-Jul-25 16:40 273 13 gusting 15 33.3
2014-Jul-25 16:35 274 6 gusting 10 33.9
2014-Jul-25 16:30 264 6 gusting 12 33.3
2014-Jul-25 16:25 234 8 gusting 12 33.9
2014-Jul-25 16:20 252 5 gusting 17 33.9
2014-Jul-25 16:15 255 6 gusting 17 33.3
2014-Jul-25 16:10 229 6 gusting 13 33.9
2014-Jul-25 16:05 231 6 gusting 9 34.4
2014-Jul-25 16:00 255 6 gusting 9 34.4
2014-Jul-25 15:55 261 1 gusting 13 33.3
2014-Jul-25 15:50 267 7 gusting 13 33.3
2014-Jul-25 15:45 252 6 gusting 13 33.3
2014-Jul-25 15:40 225 8 gusting 13 33.9
2014-Jul-25 15:35 231 5 gusting 13 33.3
2014-Jul-25 15:30 253 3 gusting 18 33.3
2014-Jul-25 15:25 258 12 gusting 18 33.3
2014-Jul-25 15:20 271 6 gusting 13 32.8
2014-Jul-25 15:15 267 6 gusting 12 32.8
2014-Jul-25 15:10 228 8 gusting 13 32.8
2014-Jul-25 15:05 234 5 gusting 13 32.2
2014-Jul-25 15:00 281 9 gusting 19 32.2
2014-Jul-25 14:55 295 6 gusting 19 32.8
2014-Jul-25 14:50 254 12 gusting 19 32.8
2014-Jul-25 14:45 237 6 gusting 14 32.8
2014-Jul-25 14:40 263 8 gusting 14 32.2
2014-Jul-25 14:35 284 9 gusting 14 32.2
2014-Jul-25 14:30 274 2 gusting 14 32.2
2014-Jul-25 14:25 229 13 gusting 14 32.8
2014-Jul-25 14:20 214 6 gusting 13 32.2
2014-Jul-25 14:15 270 5 gusting 14 32.2
2014-Jul-25 14:10 311 6 gusting 14 32.8
2014-Jul-25 14:05 312 13 gusting 14 32.2
2014-Jul-25 14:00 285 13 gusting 14 32.2
2014-Jul-25 13:55 263 6 gusting 18 31.7
2014-Jul-25 13:50 252 6 gusting 18 32.2
2014-Jul-25 13:45 260 6 gusting 18 31.7
2014-Jul-25 13:40 272 11 gusting 18 31.7
2014-Jul-25 13:35 309 4 gusting 10 33.3
2014-Jul-25 13:30 311 1 gusting 8 32.2
2014-Jul-25 13:25 295 3 gusting 13 31.1
2014-Jul-25 13:20 282 6 gusting 17 31.1
2014-Jul-25 13:15 256 13 gusting 17 31.1
2014-Jul-25 13:10 257 9 gusting 14 31.1
2014-Jul-25 13:05 276 9 gusting 14 31.1
2014-Jul-25 13:00 272 6 gusting 13 31.1
2014-Jul-25 12:55 261 4 gusting 9 31.1
2014-Jul-25 12:50 273 5 gusting 15 30.6
2014-Jul-25 12:45 272 8 gusting 17 30.6
2014-Jul-25 12:40 255 13 gusting 17 30.6
2014-Jul-25 12:35 161 6 gusting 12 31.7
2014-Jul-25 12:30 182 6 gusting 9 31.1
2014-Jul-25 12:25 234 7 gusting 13 31.7
2014-Jul-25 12:20 233 2 gusting 13 30.6
2014-Jul-25 12:15 253 4 gusting 11 30.6
2014-Jul-25 12:10 307 2 gusting 5 30.6
2014-Jul-25 12:05 303 3 gusting 11 30.6
2014-Jul-25 12:00 285 3 gusting 11 30.6
2014-Jul-25 11:55 291 6 gusting 10 30.6
2014-Jul-25 11:50 281 3 gusting 10 30.0
2014-Jul-25 11:45 241 0 gusting 13 30.0
2014-Jul-25 11:40 246 6 gusting 13 30.0
2014-Jul-25 11:35 244 9 gusting 13 30.0
2014-Jul-25 11:30 236 2 gusting 12 29.4
2014-Jul-25 11:25 234 7 gusting 16 29.4
2014-Jul-25 11:20 255 3 gusting 16 29.4
2014-Jul-25 11:15 292 6 gusting 13 28.9
2014-Jul-25 11:10 288 9 gusting 13 28.9
2014-Jul-25 11:05 263 7 gusting 11 29.4
2014-Jul-25 11:00 245 1 gusting 14 28.3
2014-Jul-25 10:55 237 8 gusting 14 29.4
2014-Jul-25 10:50 204 0 gusting 9 29.4
2014-Jul-25 10:45 223 6 gusting 9 29.4
2014-Jul-25 10:40 226 3 gusting 8 28.9
2014-Jul-25 10:35 214 3 gusting 11 28.3
2014-Jul-25 10:30 227 6 gusting 11 28.3
2014-Jul-25 10:25 250 1 gusting 9 28.3
2014-Jul-25 10:20 231 6 gusting 9 28.9
2014-Jul-25 10:15 241 4 gusting 6 30.0
2014-Jul-25 10:10 305 1 gusting 3 30.0
2014-Jul-25 10:05 339 1 gusting 3 28.9
2014-Jul-25 10:00 018 1 gusting 4 28.9
2014-Jul-25 09:55 046 1 gusting 5 28.3
2014-Jul-25 09:50 061 2 gusting 6 28.3
2014-Jul-25 09:45 087 3 gusting 6 28.9
2014-Jul-25 09:40 172 1 gusting 2 29.4
2014-Jul-25 09:35 169 1 gusting 3 28.9
2014-Jul-25 09:30 146 0 gusting 5 27.8
2014-Jul-25 09:25 006 2 gusting 5 26.7
2014-Jul-25 07:35 058 1 gusting 3 24.4
2014-Jul-25 07:30 089 2 gusting 3 25.0
2014-Jul-25 07:25 100 1 gusting 3 25.0
2014-Jul-25 07:20 065 1 gusting 3 25.6
2014-Jul-25 07:15 153 1 gusting 2 25.6
2014-Jul-25 07:10 25.0
2014-Jul-25 07:05 24.4
2014-Jul-25 07:00 169 1 gusting 3 23.9
2014-Jul-25 06:55 163 1 gusting 3 23.9
2014-Jul-25 06:50 154 0 gusting 3 23.9
2014-Jul-25 06:45 197 1 gusting 2 24.4
2014-Jul-25 06:40 202 0 gusting 2 23.9
2014-Jul-25 06:35 189 1 gusting 2 23.9
2014-Jul-25 06:30 189 0 gusting 1 24.4
2014-Jul-25 06:25 23.3
2014-Jul-25 06:20 231 1 gusting 1 22.8
2014-Jul-25 06:15 155 0 gusting 3 22.8
2014-Jul-25 06:10 22.2
2014-Jul-25 06:05 125 0 gusting 3 22.2
2014-Jul-25 06:00 102 0 gusting 3 21.7
2014-Jul-25 05:55 090 1 gusting 3 21.7
2014-Jul-25 05:50 132 1 gusting 1 21.7
2014-Jul-25 05:45 145 0 gusting 1 21.1
2014-Jul-25 05:40 20.6
2014-Jul-25 05:35 20.6
2014-Jul-25 05:30 20.6
2014-Jul-25 05:25 089 0 gusting 2 20.0
2014-Jul-25 05:20 20.0
2014-Jul-25 05:15 093 2 gusting 4 20.0
2014-Jul-25 05:10 090 0 gusting 5 20.0
2014-Jul-25 05:05 092 3 gusting 5 20.6
2014-Jul-25 05:00 076 4 gusting 5 20.0
2014-Jul-25 04:55 359 1 gusting 3 20.6
2014-Jul-25 04:50 271 1 gusting 3 20.6
2014-Jul-25 04:45 230 3 gusting 5 20.6
2014-Jul-25 04:40 228 2 gusting 5 20.6
2014-Jul-25 04:35 228 3 gusting 5 20.0
2014-Jul-25 04:30 227 2 gusting 6 20.0
2014-Jul-25 04:25 216 3 gusting 6 20.0
2014-Jul-25 04:20 204 2 gusting 6 20.0
2014-Jul-25 04:10 226 2 gusting 5 20.6
2014-Jul-25 04:05 226 3 gusting 6 20.6
2014-Jul-25 04:00 219 3 gusting 6 20.6
2014-Jul-25 03:55 216 4 gusting 6 20.6
2014-Jul-25 03:50 218 3 gusting 6 20.6
2014-Jul-25 03:45 206 2 gusting 6 20.6
2014-Jul-25 03:40 212 3 gusting 6 20.6
2014-Jul-25 03:35 228 2 gusting 6 20.0
2014-Jul-25 03:30 223 2 gusting 6 20.6
2014-Jul-25 03:25 202 4 gusting 6 21.1
2014-Jul-25 03:20 182 1 gusting 3 21.1
2014-Jul-25 03:15 184 1 gusting 3 21.1
2014-Jul-25 03:10 150 1 gusting 3 21.1
2014-Jul-25 03:05 21.7
2014-Jul-25 03:00 077 1 gusting 3 21.7
2014-Jul-25 02:55 21.7
2014-Jul-25 02:50 21.7
2014-Jul-25 02:45 068 1 gusting 3 22.2
2014-Jul-25 02:40 081 1 gusting 4 22.2
2014-Jul-25 02:35 086 1 gusting 4 22.2
2014-Jul-25 02:30 086 3 gusting 4 22.8
2014-Jul-25 02:25 094 2 gusting 3 22.8
2014-Jul-25 02:20 090 1 gusting 2 22.8
2014-Jul-25 02:15 345 0 gusting 1 22.8
2014-Jul-25 02:10 22.8
2014-Jul-25 02:05 270 0 gusting 1 22.8
2014-Jul-25 02:00 078 0 gusting 3 22.8
2014-Jul-25 01:55 22.8
2014-Jul-25 01:50 098 2 gusting 3 22.8
2014-Jul-25 01:45 101 0 gusting 1 22.8
2014-Jul-25 01:40 116 0 gusting 1 23.3
2014-Jul-25 01:35 23.3
2014-Jul-25 01:30 23.3
2014-Jul-25 01:25 092 3 gusting 3 23.3
2014-Jul-25 01:20 23.9
2014-Jul-25 01:15 219 1 gusting 4 23.9
2014-Jul-25 01:10 220 3 gusting 5 24.4
2014-Jul-25 01:05 214 3 gusting 5 24.4
2014-Jul-25 01:00 218 2 gusting 3 24.4
2014-Jul-25 00:55 24.4
2014-Jul-25 00:50 300 0 gusting 1 25.0
2014-Jul-25 00:45 322 0 gusting 3 25.0
2014-Jul-25 00:40 012 1 gusting 5 25.0
2014-Jul-25 00:35 037 1 gusting 5 25.6
2014-Jul-25 00:30 038 4 gusting 5 25.6
2014-Jul-25 00:25 040 3 gusting 5 25.6
2014-Jul-25 00:20 042 4 gusting 7 26.1
2014-Jul-25 00:15 055 3 gusting 7 26.1
2014-Jul-25 00:10 081 6 gusting 7 25.6
2014-Jul-25 00:05 100 2 gusting 3 26.7
2014-Jul-25 00:00 248 2 gusting 5 26.7
2014-Jul-24 23:55 272 0 gusting 6 26.7
2014-Jul-24 23:50 266 1 gusting 6 26.7
2014-Jul-24 23:45 270 3 gusting 7 26.7
2014-Jul-24 23:40 263 3 gusting 7 26.7
2014-Jul-24 23:35 258 2 gusting 6 27.2
2014-Jul-24 23:30 267 3 gusting 8 27.2
2014-Jul-24 23:25 266 6 gusting 8 27.2
2014-Jul-24 23:20 270 5 gusting 6 27.2
2014-Jul-24 23:15 280 4 gusting 6 27.2
2014-Jul-24 23:10 278 3 gusting 9 27.8
2014-Jul-24 23:05 274 3 gusting 9 27.2
2014-Jul-24 23:00 278 6 gusting 8 27.8
2014-Jul-24 22:55 279 6 gusting 8 27.8
2014-Jul-24 22:50 285 5 gusting 8 27.8
2014-Jul-24 22:45 274 6 gusting 8 27.8
2014-Jul-24 22:40 263 6 gusting 7 28.3
2014-Jul-24 22:35 274 4 gusting 7 28.3
2014-Jul-24 22:30 285 5 gusting 9 28.3
2014-Jul-24 22:25 299 4 gusting 9 28.3
2014-Jul-24 22:20 302 6 gusting 9 28.3
2014-Jul-24 22:15 274 7 gusting 10 28.3
2014-Jul-24 22:10 254 6 gusting 10 28.9
2014-Jul-24 22:05 266 7 gusting 12 28.9
2014-Jul-24 22:00 293 7 gusting 13 28.9
2014-Jul-24 21:55 295 8 gusting 13 28.9
2014-Jul-24 21:50 292 7 gusting 13 28.9
2014-Jul-24 21:45 294 8 gusting 13 28.9
2014-Jul-24 21:40 290 9 gusting 13 28.9
2014-Jul-24 21:35 276 6 gusting 15 29.4
2014-Jul-24 21:30 264 10 gusting 15 29.4
2014-Jul-24 21:25 265 6 gusting 13 29.4
2014-Jul-24 21:20 278 9 gusting 13 29.4
2014-Jul-24 21:15 283 6 gusting 13 29.4
2014-Jul-24 21:10 290 4 gusting 13 29.4
2014-Jul-24 21:05 290 6 gusting 10 29.4
2014-Jul-24 21:00 295 5 gusting 13 29.4
2014-Jul-24 20:55 305 6 gusting 13 29.4
2014-Jul-24 20:50 301 6 gusting 13 30.0
2014-Jul-24 20:45 297 6 gusting 13 29.4
2014-Jul-24 20:40 298 9 gusting 13 30.0
2014-Jul-24 20:35 303 7 gusting 14 30.0
2014-Jul-24 20:30 296 6 gusting 14 30.0
2014-Jul-24 20:25 294 7 gusting 14 30.0
2014-Jul-24 20:20 300 9 gusting 13 30.6
2014-Jul-24 20:15 298 6 gusting 13 30.6
2014-Jul-24 20:10 305 6 gusting 13 30.6
2014-Jul-24 20:05 290 4 gusting 8 30.6
2014-Jul-24 20:00 279 4 gusting 12 30.6
2014-Jul-24 19:55 285 6 gusting 13 30.6
2014-Jul-24 19:50 300 6 gusting 13 30.6
2014-Jul-24 19:45 307 7 gusting 13 30.6
2014-Jul-24 19:40 299 4 gusting 11 30.6
2014-Jul-24 19:35 292 7 gusting 12 30.6
2014-Jul-24 19:30 285 5 gusting 13 30.6
2014-Jul-24 19:25 293 6 gusting 13 31.1
2014-Jul-24 19:20 299 7 gusting 13 31.1
2014-Jul-24 19:15 295 9 gusting 13 31.7
2014-Jul-24 19:10 287 6 gusting 12 31.7
2014-Jul-24 19:05 291 6 gusting 9 31.7
2014-Jul-24 19:00 287 6 gusting 9 32.2
2014-Jul-24 18:55 273 3 gusting 10 32.2
2014-Jul-24 18:50 279 3 gusting 10 32.2
2014-Jul-24 18:45 292 5 gusting 11 32.2
2014-Jul-24 18:40 306 3 gusting 11 32.2
2014-Jul-24 18:35 324 6 gusting 10 32.8
2014-Jul-24 18:25 307 4 gusting 11 32.8
2014-Jul-24 18:20 299 5 gusting 9 33.3
2014-Jul-24 18:15 313 6 gusting 12 33.3
2014-Jul-24 18:10 333 6 gusting 12 33.3
2014-Jul-24 18:05 342 7 gusting 12 33.3
2014-Jul-24 18:00 346 7 gusting 12 33.3
2014-Jul-24 17:55 321 8 gusting 11 33.3
2014-Jul-24 17:50 290 4 gusting 13 33.3
2014-Jul-24 17:45 283 6 gusting 14 32.8
2014-Jul-24 17:40 281 9 gusting 15 33.3
2014-Jul-24 17:35 281 3 gusting 18 32.8
2014-Jul-24 17:30 298 8 gusting 18 32.8
2014-Jul-24 17:25 327 9 gusting 14 33.9
2014-Jul-24 17:20 324 5 gusting 13 33.9
2014-Jul-24 17:15 321 3 gusting 13 33.9
2014-Jul-24 17:10 310 6 gusting 11 33.9
2014-Jul-24 17:05 291 3 gusting 15 33.3
2014-Jul-24 17:00 293 6 gusting 15 33.3
2014-Jul-24 16:55 291 4 gusting 10 33.3
2014-Jul-24 16:50 290 4 gusting 14 33.9
2014-Jul-24 16:45 290 5 gusting 17 33.9
2014-Jul-24 16:40 298 14 gusting 17 33.9
2014-Jul-24 16:35 294 3 gusting 9 33.9
2014-Jul-24 16:30 268 3 gusting 13 33.3
2014-Jul-24 16:25 267 5 gusting 14 33.3
2014-Jul-24 16:20 283 3 gusting 14 33.3
2014-Jul-24 16:15 288 9 gusting 14 33.3
2014-Jul-24 16:10 279 6 gusting 11 33.9
2014-Jul-24 16:05 266 3 gusting 10 33.9
2014-Jul-24 16:00 277 3 gusting 10 33.9
2014-Jul-24 15:55 304 9 gusting 10 33.9
2014-Jul-24 15:50 322 6 gusting 9 33.9
2014-Jul-24 15:45 310 4 gusting 9 33.9
2014-Jul-24 15:40 288 4 gusting 14 33.9
2014-Jul-24 15:35 275 4 gusting 14 33.9
2014-Jul-24 15:30 266 7 gusting 15 33.9
2014-Jul-24 15:25 263 9 gusting 15 33.9
2014-Jul-24 15:20 275 11 gusting 15 33.9
2014-Jul-24 15:15 250 3 gusting 13 33.9
2014-Jul-24 15:10 226 12 gusting 13 33.9
2014-Jul-24 15:05 259 9 gusting 13 34.4
2014-Jul-24 15:00 255 4 gusting 8 35.6
2014-Jul-24 14:55 191 1 gusting 8 35.0
2014-Jul-24 14:50 210 1 gusting 9 34.4
2014-Jul-24 14:45 242 3 gusting 15 33.9
2014-Jul-24 14:40 254 8 gusting 15 33.9
2014-Jul-24 14:35 263 6 gusting 14 33.9
2014-Jul-24 14:30 270 13 gusting 16 33.9
2014-Jul-24 14:25 254 9 gusting 16 33.9
2014-Jul-24 14:20 175 6 gusting 9 35.0
2014-Jul-24 14:15 220 2 gusting 9 34.4
2014-Jul-24 14:10 286 3 gusting 6 33.9
2014-Jul-24 14:05 278 3 gusting 13 33.3
2014-Jul-24 14:00 236 3 gusting 14 33.3
2014-Jul-24 13:55 239 6 gusting 14 33.3
2014-Jul-24 13:50 276 6 gusting 13 33.9
2014-Jul-24 13:45 286 5 gusting 13 32.8
2014-Jul-24 13:40 267 10 gusting 13 33.3
2014-Jul-24 13:35 198 6 gusting 10 33.9
2014-Jul-24 13:30 190 1 gusting 11 33.3
2014-Jul-24 13:25 219 4 gusting 12 33.3
2014-Jul-24 13:20 230 3 gusting 13 33.3
2014-Jul-24 13:15 237 6 gusting 13 33.9
2014-Jul-24 13:10 253 4 gusting 9 33.9
2014-Jul-24 13:05 241 5 gusting 7 33.9
2014-Jul-24 13:00 179 3 gusting 6 35.0
2014-Jul-24 12:55 234 3 gusting 12 34.4
2014-Jul-24 12:50 259 1 gusting 12 33.3
2014-Jul-24 12:45 339 4 gusting 9 33.3
2014-Jul-24 12:40 286 6 gusting 11 32.8
2014-Jul-24 12:35 263 3 gusting 16 32.2
2014-Jul-24 12:30 263 8 gusting 16 32.2
2014-Jul-24 12:25 258 7 gusting 14 32.2
2014-Jul-24 12:20 247 1 gusting 12 32.2
2014-Jul-24 12:15 283 4 gusting 13 31.7
2014-Jul-24 12:10 349 9 gusting 13 32.2
2014-Jul-24 12:05 320 1 gusting 7 31.7
2014-Jul-24 12:00 270 1 gusting 13 31.7
2014-Jul-24 11:55 270 6 gusting 13 31.7
2014-Jul-24 11:50 275 6 gusting 6 32.2
2014-Jul-24 11:45 279 3 gusting 10 32.8
2014-Jul-24 11:40 285 0 gusting 10 31.7
2014-Jul-24 11:35 281 7 gusting 10 32.2
2014-Jul-24 11:30 277 1 gusting 9 31.1
2014-Jul-24 11:25 292 5 gusting 9 31.7
2014-Jul-24 11:20 306 3 gusting 5 32.2
2014-Jul-24 11:15 310 2 gusting 4 32.2
2014-Jul-24 11:10 326 0 gusting 5 32.2
2014-Jul-24 11:05 335 1 gusting 5 31.1
2014-Jul-24 11:00 322 3 gusting 6 31.1
2014-Jul-24 10:55 322 1 gusting 6 31.1
2014-Jul-24 10:50 346 3 gusting 6 31.1
2014-Jul-24 10:45 010 1 gusting 9 30.6
2014-Jul-24 10:40 013 3 gusting 9 31.1
2014-Jul-24 10:35 310 0 gusting 6 30.6
2014-Jul-24 10:30 327 2 gusting 6 31.1
2014-Jul-24 10:25 322 3 gusting 5 31.1
2014-Jul-24 10:20 057 0 gusting 6 30.6
2014-Jul-24 10:15 064 1 gusting 6 30.0
2014-Jul-24 10:10 078 4 gusting 6 30.0
2014-Jul-24 10:05 065 3 gusting 6 28.9
2014-Jul-24 10:00 061 3 gusting 6 28.9
2014-Jul-24 09:55 056 2 gusting 9 28.9
2014-Jul-24 09:50 045 2 gusting 9 28.9
2014-Jul-24 09:45 034 6 gusting 9 28.9
2014-Jul-24 09:40 345 5 gusting 6 28.9
2014-Jul-24 09:35 313 1 gusting 6 27.8
2014-Jul-24 09:30 316 4 gusting 6 27.2
2014-Jul-24 09:25 015 1 gusting 7 27.8
2014-Jul-24 09:20 021 6 gusting 7 27.8
2014-Jul-24 09:15 018 3 gusting 6 27.8
2014-Jul-24 09:10 045 1 gusting 6 27.8
2014-Jul-24 09:05 056 3 gusting 5 27.8
2014-Jul-24 09:00 047 1 gusting 6 27.8